Home   Weather   Sheffield   Past weeks

Flag for United Kingdom Past Weather in Sheffield, England, United Kingdom — Yesterday and Last 2 Weeks

Now
48 °F

Passing clouds.


Feels Like: 46 °F
Forecast: N/A
Wind: 5 mph from Southeast

Location: Manchester Airport

Current Time: Dec 6, 2016 at 8:12:22 pm

Latest Report: Dec 6, 2016 at 7:20 pm


Visibility: 4 mi

Pressure: 30.24 "Hg

Humidity: 94%

Dew Point: 46 °F

Location of SheffieldLocation

Past Weather in Sheffield — Graph

°F

Sheffield Temperature Yesterday

Maximum temperature yesterday: 41 °F (at 12:50 pm)
Minimum temperature yesterday: 32 °F (at 7:50 am)
Average temperature yesterday: 36 °F

High & Low Weather Summary for the Past Weeks

 TemperatureHumidityPressure
High48 °F (Nov 25, 1:50 pm)100% (Nov 22, 6:20 am)30.57 "Hg (Nov 22, 6:20 am)
Low25 °F (Nov 26, 6:50 am)50% (Nov 28, 1:20 pm)29.12 "Hg (Nov 21, 6:20 pm)
Average39 °F86%30.26 "Hg
* Reported Nov 21 6:20 pm — Dec 6 6:50 pm, Sheffield, Weather by CustomWeather, © 2016

Note: Actual official high and low records may vary slightly from our data, if they occured in-between our weather recording intervals... More about our weather records

Advertising

Sheffield Weather History for the Previous 24 Hours

Scroll right to see more
 ConditionsComfort  
Time TempWeatherWind HumidityBarometerVisibility
6:50 pm
Tue, Dec 6
46 °FPassing clouds.3 mph93%30.24 "Hg4 mi
5:50 pm46 °FPassing clouds.6 mph93%30.21 "Hg4 mi
5:20 pm46 °FPassing clouds.6 mph93%30.21 "Hg5 mi
4:50 pm46 °FPassing clouds.5 mph93%30.24 "Hg4 mi
4:20 pm46 °FPassing clouds.7 mph93%30.24 "Hg2 mi
3:50 pm46 °FPartly sunny.5 mph93%30.24 "Hg2 mi
3:20 pm46 °FPartly sunny.3 mph93%30.24 "Hg2 mi
2:50 pm46 °FLow clouds.5 mph93%30.24 "Hg2 mi
2:20 pm46 °FLow clouds.5 mph93%30.24 "Hg3 mi
1:50 pm45 °FFog.3 mph100%30.24 "Hg4 mi
1:20 pm45 °FFog.5 mph93%30.24 "Hg2 mi
12:50 pm45 °FFog.6 mph93%30.27 "Hg2 mi
12:20 pm45 °FFog.5 mph93%30.27 "Hg2 mi
11:50 am45 °FFog.5 mph93%30.27 "Hg2 mi
11:20 am43 °FPartly sunny.5 mph100%30.27 "Hg2 mi
10:50 am43 °FPartly sunny.6 mph93%30.30 "Hg2 mi
10:20 am43 °FPartly sunny.6 mph93%30.30 "Hg3 mi
9:50 am43 °FPartly sunny.5 mph93%30.27 "Hg3 mi
9:20 am43 °FPartly sunny.5 mph93%30.27 "Hg3 mi
8:50 am43 °FPartly sunny.5 mph87%30.27 "Hg3 mi
8:20 am41 °FBroken clouds.6 mph100%30.27 "Hg3 mi
7:50 am41 °FPartly cloudy.6 mph93%30.27 "Hg3 mi
7:20 am39 °FPassing clouds.5 mph100%30.27 "Hg4 mi
6:50 am39 °FPassing clouds.1 mph93%30.27 "Hg4 mi
6:20 am39 °FClear.2 mph93%30.24 "Hg5 mi
5:50 am39 °FClear.2 mph93%30.24 "Hg5 mi
5:20 am37 °FPassing clouds.1 mph93%30.24 "Hg6 mi
4:50 am36 °FPassing clouds.1 mph100%30.24 "Hg6 mi
4:20 am36 °FPassing clouds.2 mph93%30.24 "Hg6 mi
3:50 am37 °FPassing clouds.3 mph93%30.24 "Hg6 mi
3:20 am37 °FClear.5 mph100%30.27 "Hg6 mi
2:50 am37 °FHaze.1 mph93%30.27 "Hg3 mi
2:20 am37 °FClear.1 mph93%30.27 "Hg4 mi
1:50 am37 °FClear.3 mph93%30.27 "Hg5 mi
1:20 am36 °FClear.1 mph93%30.27 "Hg5 mi
12:50 am36 °FClear.1 mph93%30.27 "Hg5 mi
12:20 am36 °FClear.1 mph93%30.27 "Hg6 mi
11:50 pm
Mon, Dec 5
36 °FClear.1 mph93%30.24 "Hg6 mi
11:20 pm36 °FClear.3 mph93%30.24 "Hg6 mi
10:50 pm37 °FClear.2 mph87%30.24 "Hg10 mi
10:20 pm36 °FClear.3 mph93%30.24 "Hg6 mi
9:50 pm34 °FClear.2 mph93%30.24 "Hg10 mi
9:20 pm32 °FClear.2 mph100%30.24 "Hg10 mi
8:50 pm32 °FClear.1 mph93%30.24 "Hg10 mi
8:20 pm32 °FClear.2 mph93%30.24 "Hg10 mi
Weather by CustomWeather, © 2016

See weather overviewHow to use our weather pages